CW9386 Weather Reports


Display with metric or nautical units.
time (UTC)temp
F
wind
direction
speed
MPH
gust
MPH
rain 1hr
in
rain 24hr
in
rain mn
in
humidity
%
barometer
mb
20260831123712 75 28 3.0 8.0 0.00 0.00 0.00 39 1016.3
20260831122709 75 44 5.0 8.0 0.00 0.00 0.00 39 1016.2
20260831121723 75 55 4.0 8.0 0.00 0.00 0.00 40 1016.3
20260831120716 73 57 4.0 8.0 0.00 0.00 0.00 42 1016.2
20260831115728 73 90 2.0 4.0 0.00 0.00 0.00 42 1016.2
20260831114723 73 109 1.0 4.0 0.00 0.00 0.00 42 1016.4
20260831113719 73 96 3.0 4.0 0.00 0.00 0.00 42 1016.4
20260831112714 74 92 5.0 7.0 0.00 0.00 0.00 42 1016.4
20260831110727 76 140 2.0 5.0 0.00 0.00 0.00 38 1016.5
20260831105723 76 262 1.0 4.0 0.00 0.00 0.00 38 1016.3
20260831104723 76 327 3.0 6.0 0.00 0.00 0.00 38 1016.2
20260831103717 76 315 4.0 5.0 0.00 0.00 0.00 37 1016.1
20260831102711 77 298 2.0 3.0 0.00 0.00 0.00 37 1015.9
20260831100718 78 342 1.0 4.0 0.00 0.00 0.00 36 1015.6
20260831095711 79 317 2.0 4.0 0.00 0.00 0.00 35 1015.7
20260831094726 79 343 0.0 4.0 0.00 0.00 0.00 34 1015.6
20260831093715 80 304 2.0 3.0 0.00 0.00 0.00 32 1015.4
20260831091709 81 111 0.0 2.0 0.00 0.00 0.00 32 1015.3
20260831090717 82 111 1.0 2.0 0.00 0.00 0.00 31 1016.1
20260831085715 82 111 1.0 3.0 0.00 0.00 0.00 30 1016.1
20260831083726 84 114 3.0 6.0 0.00 0.00 0.00 28 1016.1
20260831082715 85 59 4.0 7.0 0.00 0.00 0.00 28 1015.9
20260831081710 85 40 5.0 8.0 0.00 0.00 0.00 29 1016.0
20260831075718 83 150 4.0 10.0 0.00 0.00 0.00 31 1016.3
20260831074715 84 244 1.0 5.0 0.00 0.00 0.00 33 1016.5
20260831073710 84 76 1.0 5.0 0.00 0.00 0.00 31 1016.5
20260831072723 84 69 3.0 6.0 0.00 0.00 0.00 31 1016.4
20260831071715 84 48 4.0 8.0 0.00 0.00 0.00 32 1016.6
20260831070719 84 49 6.0 10.0 0.00 0.00 0.00 34 1016.7
20260831065710 85 62 4.0 7.0 0.00 0.00 0.00 29 1016.7
20260831064705 85 83 2.0 5.0 0.00 0.00 0.00 29 1016.8
20260831063721 85 5 5.0 9.0 0.00 0.00 0.00 29 1016.9
20260831061712 85 24 2.0 6.0 0.00 0.00 0.00 27 1017.0
20260831060708 84 69 4.0 9.0 0.00 0.00 0.00 27 1017.1
20260831055721 83 69 6.0 9.0 0.00 0.00 0.00 27 1017.1
20260831054721 83 78 3.0 4.0 0.00 0.00 0.00 28 1016.9
20260831053718 83 135 2.0 3.0 0.00 0.00 0.00 28 1016.8
20260831052714 83 296 1.0 2.0 0.00 0.00 0.00 29 1016.8
20260831051707 83 294 0.0 3.0 0.00 0.00 0.00 27 1017.0
20260831050723 83 307 1.0 6.0 0.00 0.00 0.00 27 1017.0
20260831045711 83 115 0.0 3.0 0.00 0.00 0.00 27 1016.8
20260831044703 83 113 3.0 4.0 0.00 0.00 0.00 27 1016.9
20260831043712 83 141 1.0 3.0 0.00 0.00 0.00 27 1016.8
20260831042708 83 110 2.0 3.0 0.00 0.00 0.00 26 1016.8
20260831041720 84 130 0.0 2.0 0.00 0.00 0.00 26 1016.7
20260831040711 84 124 2.0 3.0 0.00 0.00 0.00 26 1016.6
20260831035706 85 128 2.0 3.0 0.00 0.00 0.00 26 1016.7
20260831034714 85 128 2.0 3.0 0.00 0.00 0.00 25 1016.4
20260831033709 85 123 2.0 3.0 0.00 0.00 0.00 26 1016.3
20260831032704 86 127 2.0 3.0 0.00 0.00 0.00 26 1016.4
20260831031718 86 132 3.0 6.0 0.00 0.00 0.00 26 1016.1
20260831030708 87 126 3.0 4.0 0.00 0.00 0.00 26 1016.0
20260831025718 87 135 2.0 4.0 0.00 0.00 0.00 25 1015.9
20260831024715 88 148 2.0 4.0 0.00 0.00 0.00 24 1015.6
20260831022707 91 135 2.0 3.0 0.00 0.00 0.00 22 1015.5
20260831021717 92 178 2.0 4.0 0.00 0.00 0.00 21 1015.2
20260831020715 92 175 2.0 4.0 0.00 0.00 0.00 21 1015.2
20260831015707 93 188 3.0 5.0 0.00 0.00 0.00 20 1015.0
20260831013718 94 216 3.0 6.0 0.00 0.00 0.00 19 1014.8
20260831012711 95 200 3.0 7.0 0.00 0.00 0.00 19 1014.8
20260831011704 96 184 4.0 7.0 0.00 0.00 0.00 18 1014.9
20260831005718 98 222 7.0 11.0 0.00 0.00 0.00 17 1014.8
20260831004709 98 228 4.0 5.0 0.00 0.00 0.00 16 1014.8
20260831003705 99 275 3.0 8.0 0.00 0.00 0.00 16 1014.9
20260831002716 99 232 3.0 5.0 0.00 0.00 0.00 16 1014.9
20260831001711 99 306 1.0 7.0 0.00 0.00 0.00 17 1014.8
20260831000707 99 206 1.0 5.0 0.00 0.00 0.00 17 1014.8
20260830235717 98 180 2.0 7.0 0.00 0.00 0.00 17 1014.8
20260830234705 98 129 3.0 13.0 0.00 0.00 0.00 17 1014.9
20260830231712 99 169 6.0 14.0 0.00 0.00 0.00 17 1015.0
20260830224714 100 104 6.0 11.0 0.00 0.00 0.00 17 1015.3
20260830223710 100 169 6.0 11.0 0.00 0.00 0.00 17 1015.4
20260830222703 100 186 8.0 12.0 0.00 0.00 0.00 17 1015.4
20260830221700 99 190 7.0 11.0 0.00 0.00 0.00 17 1015.7
20260830220709 99 106 6.0 10.0 0.00 0.00 0.00 17 1015.8
20260830214702 100 284 5.0 12.0 0.00 0.00 0.00 17 1016.0
20260830210655 101 331 3.0 9.0 0.00 0.00 0.00 17 1016.5
20260830205710 100 157 2.0 7.0 0.00 0.00 0.00 17 1016.7
20260830204704 99 19 2.0 7.0 0.00 0.00 0.00 18 1016.9
20260830203702 98 59 1.0 9.0 0.00 0.00 0.00 18 1017.2
20260830200658 98 282 4.0 8.0 0.00 0.00 0.00 19 1017.7
20260830195711 97 309 4.0 8.0 0.00 0.00 0.00 20 1017.9
20260830194704 97 9 6.0 9.0 0.00 0.00 0.00 20 1018.0
20260830192704 96 221 4.0 8.0 0.00 0.00 0.00 21 1018.2
20260830191701 96 317 3.0 8.0 0.00 0.00 0.00 21 1018.4
20260830190656 95 259 4.0 13.0 0.00 0.00 0.00 21 1018.5
20260830185707 96 244 2.0 8.0 0.00 0.00 0.00 21 1018.7
20260830184659 96 97 4.0 9.0 0.00 0.00 0.00 21 1018.8
20260830183708 96 246 4.0 6.0 0.00 0.00 0.00 21 1019.1
20260830182703 96 282 4.0 6.0 0.00 0.00 0.00 21 1019.4
20260830181700 95 17 3.0 8.0 0.00 0.00 0.00 22 1019.5
20260830180655 94 79 3.0 8.0 0.00 0.00 0.00 22 1019.7
20260830175705 93 18 1.0 6.0 0.00 0.00 0.00 23 1019.8
20260830173653 92 331 2.0 6.0 0.00 0.00 0.00 23 1019.9
20260830171701 92 252 5.0 8.0 0.00 0.00 0.00 23 1020.1
20260830170654 92 207 3.0 5.0 0.00 0.00 0.00 24 1020.2
20260830164703 91 110 1.0 4.0 0.00 0.00 0.00 25 1020.1
20260830162705 89 5 2.0 4.0 0.00 0.00 0.00 26 1020.1
20260830161656 88 329 2.0 5.0 0.00 0.00 0.00 28 1020.1
20260830160703 88 324 4.0 5.0 0.00 0.00 0.00 28 1020.0
20260830155656 86 360 2.0 5.0 0.00 0.00 0.00 30 1020.0
20260830154653 85 348 2.0 6.0 0.00 0.00 0.00 33 1020.0
20260830153645 84 324 4.0 6.0 0.00 0.00 0.00 34 1020.0
20260830152656 83 347 4.0 8.0 0.00 0.00 0.00 36 1020.1
20260830151652 82 350 4.0 8.0 0.00 0.00 0.00 37 1020.1
20260830150651 81 350 4.0 9.0 0.00 0.00 0.00 38 1020.3
20260830145703 80 5 5.0 8.0 0.00 0.00 0.00 40 1020.2
20260830144656 79 9 5.0 10.0 0.00 0.00 0.00 42 1020.2
20260830142701 78 355 6.0 9.0 0.00 0.00 0.00 43 1020.2
20260830140655 77 23 5.0 9.0 0.00 0.00 0.00 44 1020.0
20260830135659 76 5 5.0 9.0 0.00 0.00 0.00 44 1020.1
20260830134653 75 32 4.0 6.0 0.00 0.00 0.00 44 1020.0
20260830133650 75 27 3.0 8.0 0.00 0.00 0.00 44 1020.0
20260830132646 74 23 5.0 9.0 0.00 0.00 0.00 44 1019.9
20260830131642 74 5 3.0 7.0 0.00 0.00 0.00 44 1019.8
20260830125652 74 32 5.0 8.0 0.00 0.00 0.00 40 1019.6
20260830124701 74 22 4.0 5.0 0.00 0.00 0.00 37 1019.5